Okean 1-7 Rocket - Orbit

View from above orbital plane
View from above orbital plane
View from above satellite
View from above satellite

Ground track
Ground track

The orbit data is extracted from the following two-line orbital elements,

1 23318U 94066B   13144.42962598  .00000490  00000-0  64356-4 0  7124
2 23318 082.5418 104.6661 0025310 061.5505 085.3235 14.77988592  3250
Epoch (UTC): 24 May 2013 10:18:39
Eccentricity: 0.0025310
inclination: 82.5418°
perigee height: 618 km
apogee height: 653 km
right ascension of ascending node: 104.6661°
argument of perigee: 61.5505°
revolutions per day: 14.77988592
mean anomaly at epoch: 85.3235°
orbit number at epoch: 325

The dashed part of the orbit path shows where the satellite is in the earth's shadow,  

Developed and maintained by Chris Peat, Heavens-Above GmbH. Please read the updated FAQ before sending e-mail. Imprint. DLR